Total_Precipitation_Accumulation
0.13 0.29 0.68 0.98 1.02 0.98 0.93 0.91 0.85 0.78 0.76 0.83 0.93 1.00 1.02 0.96 0.93 0.93 0.94 0.96 0.93 0.99 1.10 1.21 1.17 1.15 1.11 1.03 0.89 0.81 0.79 0.80 0.83 0.80 0.86 0.94 0.98 0.95 0.87 0.83 0.73 0.81 1.13
0.12 0.27 0.64 0.85 0.96 1.01 0.98 0.91 0.84 0.73 0.73 0.79 0.89 0.94 1.01 1.01 0.98 1.01 1.02 1.06 0.99 1.04 1.16 1.23 1.21 1.16 1.15 0.99 0.83 0.70 0.65 0.60 0.60 0.58 0.58 0.62 0.84 0.94 0.89 0.88 0.90 1.22 1.40
0.11 0.24 0.52 0.79 0.92 1.02 1.00 0.90 0.81 0.77 0.77 0.84 0.90 0.90 0.93 1.01 1.05 1.12 1.14 1.10 1.04 1.04 1.06 1.10 1.15 1.13 1.05 0.94 0.80 0.68 0.61 0.54 0.46 0.44 0.43 0.40 0.68 1.02 1.00 0.98 1.01 1.33 1.42
0.13 0.23 0.41 0.74 0.92 0.98 0.99 0.94 0.92 0.92 0.92 0.98 1.01 0.97 0.93 1.00 1.10 1.18 1.15 1.13 1.09 1.07 1.01 0.98 0.97 0.98 0.84 0.73 0.73 0.71 0.66 0.56 0.40 0.34 0.26 0.30 0.62 1.07 1.14 1.04 1.02 1.12 1.21
0.18 0.25 0.48 0.81 0.99 1.02 1.07 1.01 1.00 1.03 1.07 1.09 1.10 1.10 1.08 1.12 1.14 1.22 1.24 1.21 1.14 1.07 1.01 0.96 0.88 0.84 0.79 0.73 0.73 0.72 0.69 0.54 0.38 0.28 0.19 0.25 0.53 1.03 1.05 1.01 0.95 1.00 1.03
0.25 0.32 0.56 0.85 1.05 1.09 1.15 1.14 1.15 1.17 1.18 1.19 1.15 1.14 1.17 1.27 1.27 1.24 1.23 1.29 1.25 1.09 1.02 0.98 0.90 0.85 0.77 0.73 0.75 0.77 0.72 0.60 0.39 0.25 0.22 0.25 0.39 0.80 0.97 1.07 1.06 1.03 0.98
0.35 0.42 0.61 0.91 1.11 1.23 1.28 1.31 1.36 1.40 1.40 1.34 1.27 1.19 1.19 1.23 1.29 1.25 1.16 1.16 1.14 1.08 1.03 0.98 0.90 0.86 0.84 0.78 0.75 0.77 0.80 0.65 0.42 0.39 0.36 0.36 0.49 0.80 0.94 1.09 1.14 1.09 1.14
0.43 0.53 0.75 1.10 1.25 1.34 1.39 1.37 1.46 1.55 1.61 1.58 1.46 1.33 1.28 1.28 1.27 1.24 1.14 1.10 1.10 1.06 0.99 0.95 0.91 0.85 0.81 0.78 0.76 0.75 0.77 0.60 0.46 0.49 0.57 0.57 0.69 0.90 0.97 1.05 1.14 1.15 1.24
0.49 0.66 0.89 1.18 1.36 1.57 1.57 1.48 1.49 1.53 1.65 1.65 1.56 1.44 1.32 1.27 1.25 1.21 1.19 1.11 1.10 1.12 1.04 0.93 0.88 0.89 0.78 0.71 0.70 0.67 0.65 0.58 0.57 0.67 0.65 0.78 0.85 1.05 1.13 1.08 1.10 1.17 1.24
0.63 0.81 1.02 1.24 1.39 1.52 1.63 1.57 1.50 1.52 1.60 1.73 1.68 1.52 1.38 1.35 1.34 1.25 1.15 1.19 1.15 1.11 1.10 0.99 0.90 0.94 0.89 0.73 0.67 0.62 0.57 0.53 0.52 0.60 0.74 0.78 0.93 1.25 1.35 1.21 1.09 1.09 1.19
0.83 1.01 1.16 1.30 1.44 1.57 1.67 1.61 1.61 1.61 1.66 1.76 1.77 1.71 1.57 1.46 1.44 1.34 1.16 1.18 1.24 1.21 1.13 1.08 0.98 0.96 0.93 0.77 0.66 0.62 0.57 0.46 0.49 0.64 0.70 0.76 0.95 1.28 1.51 1.35 1.20 1.09 1.12
0.86 1.07 1.23 1.33 1.50 1.71 1.79 1.82 1.89 1.75 1.66 1.70 1.64 1.67 1.64 1.56 1.55 1.42 1.37 1.28 1.27 1.29 1.27 1.21 1.12 1.07 0.97 0.81 0.70 0.63 0.50 0.41 0.42 0.49 0.60 0.74 0.89 1.12 1.48 1.52 1.40 1.29 1.25
0.88 1.08 1.29 1.44 1.61 1.82 1.85 1.85 1.88 1.85 1.72 1.74 1.71 1.67 1.67 1.68 1.57 1.57 1.52 1.55 1.51 1.43 1.41 1.40 1.35 1.17 1.05 0.93 0.83 0.71 0.55 0.53 0.52 0.51 0.62 0.69 0.73 0.94 1.23 1.41 1.57 1.57 1.55
0.98 1.14 1.33 1.54 1.76 1.95 1.99 2.01 1.92 1.81 1.70 1.64 1.72 1.74 1.72 1.65 1.49 1.35 1.32 1.31 1.35 1.34 1.40 1.44 1.41 1.27 1.16 1.06 0.94 0.81 0.72 0.68 0.67 0.65 0.64 0.65 0.64 0.82 1.13 1.31 1.47 1.66 1.80
1.03 1.16 1.32 1.53 1.75 2.00 2.27 2.26 2.16 2.01 1.82 1.72 1.73 1.75 1.70 1.66 1.55 1.37 1.23 1.26 1.24 1.21 1.25 1.31 1.24 1.14 1.09 1.00 0.96 0.92 0.87 0.76 0.73 0.69 0.64 0.63 0.61 0.69 0.96 1.19 1.38 1.64 1.88
1.08 1.22 1.38 1.55 1.72 1.97 2.26 2.38 2.32 2.22 2.11 2.02 1.88 1.80 1.76 1.73 1.65 1.53 1.33 1.26 1.26 1.22 1.23 1.22 1.20 1.10 1.02 0.91 0.85 0.83 0.89 0.86 0.80 0.74 0.64 0.60 0.59 0.61 0.78 1.04 1.30 1.57 1.88
1.19 1.31 1.49 1.65 1.82 1.95 2.14 2.44 2.51 2.46 2.35 2.25 2.05 2.00 2.01 1.92 1.85 1.79 1.60 1.41 1.31 1.29 1.32 1.31 1.25 1.23 1.11 0.95 0.83 0.78 0.77 0.79 0.79 0.75 0.67 0.61 0.61 0.62 0.71 0.92 1.14 1.40 1.73
1.32 1.39 1.63 1.77 1.93 2.00 2.05 2.36 2.52 2.58 2.62 2.54 2.41 2.26 2.22 2.21 2.13 2.02 1.87 1.68 1.54 1.42 1.35 1.35 1.27 1.23 1.17 1.06 0.92 0.82 0.76 0.73 0.70 0.68 0.64 0.62 0.64 0.65 0.71 0.83 0.95 1.22 1.51
1.27 1.47 1.76 1.87 1.94 2.06 2.10 2.26 2.53 2.58 2.61 2.66 2.71 2.61 2.50 2.47 2.40 2.30 2.13 1.95 1.85 1.72 1.55 1.42 1.34 1.23 1.15 1.11 1.07 0.99 0.88 0.78 0.73 0.70 0.64 0.58 0.56 0.58 0.64 0.72 0.81 0.97 1.22
1.27 1.50 1.82 2.05 2.10 2.19 2.29 2.32 2.49 2.70 2.60 2.50 2.56 2.61 2.64 2.71 2.66 2.59 2.42 2.20 2.12 2.01 1.87 1.68 1.52 1.37 1.23 1.15 1.16 1.16 1.06 0.95 0.84 0.74 0.67 0.63 0.58 0.56 0.60 0.65 0.67 0.75 0.94
1.34 1.49 1.74 2.01 2.14 2.20 2.26 2.23 2.15 2.33 2.47 2.38 2.26 2.35 2.53 2.68 2.83 2.82 2.62 2.45 2.33 2.18 1.94 1.81 1.75 1.64 1.46 1.31 1.32 1.36 1.23 1.06 1.00 0.86 0.73 0.66 0.62 0.56 0.57 0.64 0.67 0.67 0.77
1.32 1.43 1.62 1.91 2.11 2.08 2.02 2.08 2.05 2.09 2.23 2.34 2.30 2.27 2.36 2.58 2.78 2.97 2.83 2.63 2.48 2.37 2.24 2.02 1.87 1.83 1.75 1.54 1.43 1.46 1.49 1.41 1.16 0.95 0.83 0.72 0.66 0.63 0.61 0.60 0.66 0.69 0.71
1.30 1.42 1.45 1.70 2.07 2.15 2.12 2.26 2.29 2.34 2.39 2.42 2.35 2.29 2.30 2.38 2.53 2.62 2.66 2.53 2.52 2.44 2.36 2.22 2.03 1.93 1.94 1.79 1.52 1.59 1.66 1.49 1.18 1.00 0.89 0.80 0.73 0.68 0.64 0.61 0.64 0.69 0.72
1.22 1.50 1.56 1.62 1.92 2.21 2.25 2.25 2.20 2.20 2.20 2.20 2.14 2.12 2.22 2.37 2.45 2.48 2.52 2.51 2.33 2.25 2.20 2.18 2.13 2.00 2.02 2.02 1.78 1.49 1.37 1.31 1.34 1.22 0.99 0.92 0.91 0.83 0.73 0.66 0.64 0.71 0.75
1.24 1.50 1.69 1.76 1.82 2.06 2.18 2.13 2.10 2.07 2.07 2.17 2.16 2.11 2.15 2.29 2.46 2.53 2.48 2.49 2.46 2.28 2.11 2.06 2.09 2.09 2.04 1.97 1.86 1.66 1.42 1.19 1.13 1.28 1.14 0.99 1.04 1.01 0.93 0.83 0.77 0.78 0.80
1.30 1.52 1.71 1.87 1.78 1.88 2.18 2.19 2.02 1.95 1.94 2.05 2.17 2.21 2.22 2.23 2.29 2.39 2.44 2.38 2.35 2.34 2.27 2.09 2.04 2.10 2.05 1.97 1.87 1.75 1.63 1.49 1.26 1.23 1.18 0.97 0.95 0.95 0.99 1.03 0.99 0.96 0.94